FW0299 Weather Reports


time (UTC)temp
C
wind
direction
speed
KPH
gust
KPH
rain 1hr
cm
rain 24hr
cm
rain mn
cm
humidity
%
barometer
mb
20260506070705 10 125 1.6 6.4 0.00 0.00 0.00 69 1019.2
20260506070204 10 123 1.6 6.4 0.00 0.00 0.00 66 1019.2
20260506062201 10 234 0.0 0.0 0.00 0.00 0.00 76 1018.9
20260506061919 10 234 0.0 0.0 0.00 0.00 0.00 76 1018.9
20260506061157 10 234 0.0 3.2 0.00 0.00 0.00 77 1018.9
20260506060659 10 233 0.0 3.2 0.00 0.00 0.00 77 1018.8
20260506060151 10 235 0.0 0.0 0.00 0.00 0.00 77 1018.8
20260506050810 11 333 0.0 0.0 0.00 0.00 0.00 80 1018.2
20260506045028 11 333 0.0 0.0 0.00 0.00 0.00 80 1018.1
20260506044521 11 333 0.0 4.8 0.00 0.00 0.00 80 1018.0
20260506044015 11 333 0.0 4.8 0.00 0.00 0.00 79 1017.8
20260506043508 12 337 0.0 3.2 0.00 0.00 0.00 79 1017.8
20260506043224 12 327 0.0 3.2 0.00 0.00 0.00 77 1017.7
20260506042720 12 323 1.6 6.4 0.00 0.00 0.00 77 1017.6
20260506041952 12 265 1.6 6.4 0.00 0.00 0.00 75 1017.4
20260506041446 13 255 1.6 4.8 0.00 0.00 0.00 74 1017.3
20260506040940 13 263 1.6 6.4 0.00 0.00 0.00 72 1017.2
20260506040434 14 260 3.2 6.4 0.00 0.00 0.00 69 1017.2
20260506035929 14 260 4.8 8.0 0.00 0.00 0.00 68 1017.0
20260506034916 15 221 3.2 12.9 0.00 0.00 0.00 63 1016.9
20260506034635 16 244 0.0 6.4 0.00 0.00 0.00 54 1016.8
20260506033903 16 46 0.0 1.6 0.00 0.00 0.00 50 1016.7
20260506033620 17 46 0.0 3.2 0.00 0.00 0.00 51 1016.7
20260506032345 17 46 0.0 1.6 0.00 0.00 0.00 47 1016.4
20260506031838 18 46 0.0 1.6 0.00 0.00 0.00 46 1016.3
20260506031334 18 46 0.0 1.6 0.00 0.00 0.00 45 1016.2
20260506030828 19 46 0.0 1.6 0.00 0.00 0.00 43 1016.1
20260506030323 19 45 0.0 4.8 0.00 0.00 0.00 41 1016.0
20260506030038 20 45 0.0 4.8 0.00 0.00 0.00 39 1016.0
20260506025531 20 43 1.6 4.8 0.00 0.00 0.00 40 1015.9
20260506024803 20 39 1.6 4.8 0.00 0.00 0.00 37 1015.8
20260506024259 21 29 1.6 4.8 0.00 0.00 0.00 37 1015.6
20260506023759 21 21 1.6 9.7 0.00 0.00 0.00 36 1015.5
20260506023300 21 107 1.6 9.7 0.00 0.00 0.00 37 1015.3
20260506022757 21 105 3.2 9.7 0.00 0.00 0.00 35 1015.3
20260506022257 22 74 4.8 9.7 0.00 0.00 0.00 35 1015.3
20260506021757 22 37 3.2 8.0 0.00 0.00 0.00 34 1015.2
20260506021258 22 57 1.6 6.4 0.00 0.00 0.00 35 1015.2
20260506020755 22 116 3.2 14.5 0.00 0.00 0.00 34 1015.2
20260506020520 22 116 4.8 14.5 0.00 0.00 0.00 33 1015.1
20260506015752 22 134 4.8 12.9 0.00 0.00 0.00 33 1015.0
20260506015251 22 108 6.4 16.1 0.00 0.00 0.00 33 1015.1
20260506015019 22 119 6.4 17.7 0.00 0.00 0.00 33 1014.9
20260506014516 23 119 6.4 17.7 0.00 0.00 0.00 33 1014.9
20260506013751 23 88 6.4 16.1 0.00 0.00 0.00 33 1014.6
20260506013516 23 58 6.4 17.7 0.00 0.00 0.00 33 1014.6
20260506013017 23 94 6.4 17.7 0.00 0.00 0.00 32 1014.6
20260506012252 23 46 4.8 12.9 0.00 0.00 0.00 32 1014.5
20260506011747 23 130 6.4 20.9 0.00 0.00 0.00 32 1014.3
20260506011247 23 170 8.0 20.9 0.00 0.00 0.00 32 1014.3
20260506010746 23 144 6.4 16.1 0.00 0.00 0.00 31 1014.3
20260506010246 23 144 6.4 16.1 0.00 0.00 0.00 32 1014.3
20260506010011 23 119 8.0 17.7 0.00 0.00 0.00 32 1014.4
20260506005246 23 113 8.0 17.7 0.00 0.00 0.00 32 1014.3
20260506004747 23 159 8.0 16.1 0.00 0.00 0.00 32 1014.3
20260506004245 23 100 6.4 19.3 0.00 0.00 0.00 33 1014.4
20260506003744 23 132 6.4 19.3 0.00 0.00 0.00 32 1014.3
20260506003244 24 334 8.0 17.7 0.00 0.00 0.00 31 1014.2
20260506002745 24 136 6.4 17.7 0.00 0.00 0.00 31 1014.2
20260506002245 24 0 6.4 14.5 0.00 0.00 0.00 31 1014.2
20260506001745 24 355 6.4 20.9 0.00 0.00 0.00 32 1014.3
20260506001246 24 5 4.8 20.9 0.00 0.00 0.00 34 1014.1
20260506000745 23 51 6.4 17.7 0.00 0.00 0.00 32 1014.1
20260506000247 23 5 6.4 24.1 0.00 0.00 0.00 33 1014.3
20260505235745 23 5 6.4 24.1 0.00 0.00 0.00 33 1014.2
20260505235244 23 32 6.4 17.7 0.00 0.00 0.00 33 1014.1
20260505234746 23 19 6.4 19.3 0.00 0.00 0.00 34 1014.1
20260505234243 23 323 8.0 19.3 0.00 0.00 0.00 34 1014.1
20260505233243 23 306 6.4 19.3 0.00 0.00 0.00 34 1014.1
20260505232740 23 320 4.8 14.5 0.00 0.00 0.00 31 1014.1
20260505232242 23 157 6.4 16.1 0.00 0.00 0.00 34 1014.1
20260505231739 23 26 6.4 17.7 0.00 0.00 0.00 32 1014.2
20260505231237 23 0 8.0 17.7 0.00 0.00 0.00 34 1014.3
20260505230737 23 340 8.0 20.9 0.00 0.00 0.00 32 1014.3
20260505225736 23 119 6.4 20.9 0.00 0.00 0.00 33 1014.3
20260505225235 23 47 6.4 16.1 0.00 0.00 0.00 33 1014.4
20260505224734 23 319 8.0 20.9 0.00 0.00 0.00 31 1014.4
20260505224234 23 30 9.7 22.5 0.00 0.03 0.00 33 1014.4
20260505223732 23 287 8.0 22.5 0.00 0.05 0.00 34 1014.5
20260505223233 23 309 6.4 17.7 0.00 0.05 0.00 34 1014.4
20260505222727 23 338 6.4 19.3 0.00 0.05 0.00 33 1014.5
20260505222443 23 18 6.4 17.7 0.00 0.05 0.00 32 1014.6
20260505221715 23 11 8.0 17.7 0.00 0.05 0.00 34 1014.6
20260505221209 23 13 6.4 17.7 0.00 0.05 0.00 34 1014.8
20260505220702 23 128 8.0 19.3 0.00 0.05 0.00 37 1014.5
20260505220155 22 80 8.0 19.3 0.00 0.05 0.00 36 1014.6
20260505215649 22 15 6.4 16.1 0.00 0.05 0.00 34 1014.6
20260505214638 22 61 6.4 20.9 0.00 0.05 0.00 36 1014.8
20260505214357 22 63 8.0 20.9 0.00 0.05 0.00 35 1014.9
20260505213625 22 90 8.0 20.9 0.00 0.05 0.00 37 1014.8
20260505213120 22 17 8.0 20.9 0.00 0.05 0.00 38 1014.9
20260505212614 22 13 8.0 19.3 0.00 0.05 0.00 36 1015.0
20260505212108 22 50 6.4 17.7 0.00 0.05 0.00 37 1015.1
20260505211601 22 279 6.4 16.1 0.00 0.05 0.00 36 1015.1
20260505211055 22 108 6.4 16.1 0.00 0.05 0.00 36 1015.0
20260505210549 22 40 6.4 14.5 0.00 0.05 0.00 36 1015.1
20260505205537 21 13 6.4 19.3 0.00 0.05 0.00 38 1015.0
20260505205034 21 22 8.0 20.9 0.00 0.05 0.00 40 1015.1
20260505204526 21 11 9.7 20.9 0.00 0.05 0.00 38 1015.1
20260505204247 21 84 8.0 19.3 0.00 0.05 0.00 40 1015.2
20260505203514 21 355 8.0 19.3 0.00 0.05 0.00 38 1015.2
20260505203007 21 53 6.4 17.7 0.00 0.05 0.00 36 1015.2
20260505202502 20 330 6.4 16.1 0.00 0.05 0.00 37 1015.2
20260505201956 20 28 6.4 19.3 0.00 0.05 0.00 38 1015.3
20260505201449 20 161 6.4 19.3 0.00 0.05 0.00 38 1015.4
20260505200944 20 113 6.4 16.1 0.00 0.05 0.00 41 1015.4
20260505200438 20 74 6.4 17.7 0.00 0.05 0.00 44 1015.5
20260505195932 20 92 6.4 17.7 0.00 0.05 0.00 43 1015.5
20260505195426 20 348 8.0 17.7 0.00 0.05 0.00 41 1015.5
20260505194920 19 109 8.0 17.7 0.00 0.05 0.00 43 1015.6
20260505194414 19 138 8.0 17.7 0.00 0.05 0.00 45 1015.5
20260505193907 19 134 8.0 17.7 0.00 0.05 0.00 45 1015.6
20260505193401 19 120 4.8 16.1 0.00 0.05 0.00 46 1015.6
20260505192902 19 72 4.8 14.5 0.00 0.05 0.00 45 1015.8
20260505192627 19 92 8.0 16.1 0.00 0.05 0.00 44 1015.8
20260505191902 18 107 8.0 17.7 0.00 0.05 0.00 43 1015.9
20260505191400 18 115 6.4 17.7 0.00 0.05 0.00 46 1015.8
20260505190901 18 140 6.4 17.7 0.00 0.05 0.00 48 1015.8
20260505190400 18 52 8.0 17.7 0.00 0.05 0.00 48 1015.8
20260505185859 18 0 6.4 17.7 0.00 0.05 0.00 47 1015.9
20260505185400 18 21 6.4 16.1 0.00 0.05 0.00 44 1015.9
20260505184900 18 115 8.0 14.5 0.00 0.05 0.00 44 1015.9
20260505184400 18 123 8.0 14.5 0.00 0.05 0.00 46 1015.9
20260505183624 17 38 4.8 16.1 0.00 0.05 0.00 46 1016.0
20260505182900 17 117 4.8 16.1 0.00 0.05 0.00 48 1016.0
20260505182400 17 9 3.2 14.5 0.00 0.05 0.00 49 1016.0
20260505181902 17 78 4.8 9.7 0.00 0.05 0.00 47 1016.0
20260505181359 17 177 4.8 16.1 0.00 0.05 0.00 46 1016.1
20260505180900 17 116 4.8 16.1 0.00 0.05 0.00 50 1016.1
20260505175900 16 57 4.8 16.1 0.00 0.05 0.00 56 1016.0
20260505175623 16 336 4.8 16.1 0.00 0.05 0.00 57 1016.0
20260505174859 16 92 4.8 12.9 0.00 0.05 0.00 61 1016.0
20260505174400 16 44 4.8 14.5 0.00 0.05 0.00 63 1015.9
20260505173120 15 355 4.8 17.7 0.00 0.05 0.00 62 1015.9
20260505172400 15 54 3.2 12.9 0.00 0.05 0.00 66 1015.9
20260505171859 15 114 4.8 9.7 0.00 0.05 0.00 66 1015.9
20260505171400 15 124 4.8 11.3 0.00 0.05 0.00 69 1015.8
20260505170858 15 44 4.8 14.5 0.00 0.05 0.00 69 1015.9
20260505170357 15 67 3.2 16.1 0.00 0.05 0.00 69 1015.8
20260505165858 15 351 3.2 16.1 0.00 0.05 0.00 70 1015.8
20260505165358 14 74 4.8 14.5 0.00 0.05 0.00 71 1015.9
20260505165129 14 95 4.8 14.5 0.00 0.05 0.00 72 1015.8
20260505164357 14 136 4.8 11.3 0.00 0.05 0.00 70 1015.8
20260505163858 13 17 8.0 17.7 0.00 0.05 0.00 74 1015.6
20260505163357 13 49 8.0 17.7 0.00 0.05 0.00 75 1015.8
20260505163130 13 0 4.8 17.7 0.00 0.05 0.00 73 1015.6
20260505162357 13 113 3.2 9.7 0.00 0.05 0.00 74 1015.5
20260505161858 13 17 4.8 14.5 0.00 0.05 0.00 77 1015.6
20260505161357 12 32 6.4 14.5 0.00 0.05 0.00 77 1015.6
20260505160858 12 9 4.8 12.9 0.00 0.05 0.00 79 1015.8
20260505160358 12 355 6.4 14.5 0.00 0.05 0.00 78 1015.8
20260505152847 10 57 4.8 9.7 0.00 0.05 0.00 1 1015.6
20260505152341 10 19 4.8 9.7 0.00 0.05 0.00 1 1015.5
20260505151329 9 10 1.6 8.0 0.00 0.05 0.00 1 1015.5
20260505150823 8 0 1.6 6.4 0.00 0.05 0.00 1 1015.4
20260505150540 8 349 0.0 0.0 0.00 0.05 0.00 1 1015.6
20260505140205 4 349 0.0 0.0 0.00 0.05 0.00 31 1015.0
20260505124536 5 349 0.0 0.0 0.00 0.05 0.00 47 1014.8
20260505124030 5 349 0.0 0.0 0.00 0.05 0.00 52 1014.8
20260505123524 5 349 0.0 0.0 0.00 0.05 0.00 53 1014.6
20260505123016 5 349 0.0 0.0 0.00 0.05 0.00 51 1014.6
20260505122511 5 349 0.0 0.0 0.00 0.05 0.00 50 1014.6
20260505121501 5 349 0.0 0.0 0.00 0.05 0.00 47 1014.5
20260505120955 5 349 0.0 0.0 0.00 0.05 0.00 45 1014.4
20260505120447 6 349 0.0 0.0 0.00 0.05 0.00 41 1014.4
20260505120201 6 349 0.0 0.0 0.00 0.05 0.00 38 1014.4
20260505115435 6 349 0.0 0.0 0.00 0.05 0.00 40 1014.4
20260505114930 6 349 0.0 0.0 0.00 0.05 0.00 41 1014.4
20260505114423 6 349 0.0 0.0 0.00 0.05 0.00 42 1014.3
20260505113917 6 349 0.0 0.0 0.00 0.05 0.00 44 1014.4
20260505113411 6 349 0.0 0.0 0.00 0.05 0.00 44 1014.3
20260505112906 6 349 0.0 0.0 0.00 0.05 0.00 43 1014.4
20260505112359 6 349 0.0 0.0 0.00 0.05 0.00 39 1014.3
20260505111853 6 349 0.0 0.0 0.00 0.05 0.00 39 1014.3
20260505110847 6 349 0.0 0.0 0.00 0.05 0.00 40 1014.3
20260505110347 6 349 0.0 0.0 0.00 0.05 0.00 38 1014.4
20260505101833 7 349 0.0 0.0 0.00 0.05 0.00 32 1014.3
20260505101334 7 349 0.0 0.0 0.00 0.05 0.00 32 1014.3
20260505100833 7 349 0.0 0.0 0.00 0.05 0.00 33 1014.2
20260505100333 7 349 0.0 0.0 0.00 0.05 0.00 32 1014.2
20260505095833 7 349 0.0 0.0 0.00 0.05 0.00 32 1014.2
20260505094833 7 350 0.0 0.0 0.00 0.05 0.00 35 1014.2
20260505094333 7 349 0.0 0.0 0.00 0.05 0.00 35 1014.2
20260505093831 7 350 0.0 0.0 0.00 0.05 0.00 36 1014.3
20260505093330 7 349 0.0 0.0 0.00 0.05 0.00 38 1014.3
20260505092830 7 349 0.0 0.0 0.00 0.05 0.00 40 1014.2
20260505092551 7 349 0.0 0.0 0.00 0.05 0.00 44 1014.2
20260505091831 7 349 0.0 0.0 0.00 0.05 0.00 45 1014.2
20260505091554 7 350 0.0 0.0 0.00 0.05 0.00 46 1014.2
20260505090830 7 350 0.0 0.0 0.00 0.05 0.00 47 1014.2
20260505090331 7 349 0.0 0.0 0.00 0.05 0.00 49 1014.2
20260505085830 7 349 0.0 0.0 0.00 0.05 0.00 50 1014.1
20260505085331 7 350 0.0 0.0 0.00 0.05 0.00 52 1014.1
20260505084832 7 350 0.0 0.0 0.00 0.05 0.00 52 1014.2
20260505084552 7 350 0.0 0.0 0.00 0.05 0.00 52 1014.3
20260505083831 7 349 0.0 0.0 0.00 0.05 0.00 52 1014.3
20260505083330 7 349 0.0 0.0 0.00 0.05 0.00 52 1014.3
20260505082830 8 355 0.0 4.8 0.00 0.05 0.00 52 1014.2
20260505082329 8 355 0.0 4.8 0.00 0.05 0.00 52 1014.3
20260505081829 8 323 0.0 0.0 0.00 0.05 0.00 51 1014.3
20260505081328 8 335 0.0 6.4 0.00 0.05 0.00 51 1014.3
20260505080829 8 336 1.6 6.4 0.00 0.05 0.00 51 1014.2
20260505080553 8 325 1.6 4.8 0.00 0.05 0.00 51 1014.3
20260505075826 8 343 1.6 4.8 0.00 0.05 0.00 52 1014.2
20260505075547 8 253 0.0 3.2 0.00 0.05 0.00 54 1014.2
20260505074825 8 246 0.0 4.8 0.00 0.05 0.00 53 1014.2
20260505074322 8 147 1.6 8.0 0.00 0.05 0.00 51 1014.1
20260505073823 8 355 1.6 8.0 0.00 0.05 0.00 48 1014.1
20260505073320 8 238 1.6 6.4 0.00 0.05 0.00 47 1014.2
20260505072820 8 351 1.6 8.0 0.00 0.05 0.00 47 1014.2
20260505072318 8 355 1.6 8.0 0.00 0.05 0.00 46 1014.2
20260505071817 8 355 1.6 8.0 0.00 0.05 0.00 44 1014.2
20260505071315 8 255 1.6 6.4 0.00 0.05 0.00 42 1014.2
20260505070813 9 280 1.6 6.4 0.00 0.05 0.00 41 1014.1